Location: Cerro Alto Campground
(35.4250°N, 120.7383°W)
Time: 21:01:59
(UTC-07:00)

Daily predictions for brighter satellites

Satellite Brightness Start Highest point End
(mag) Time Altitude Azimuth Time Altitude Azimuth Time Altitude Azimuth
CZ-4 R/B 1.6 18:47:32 10° S 18:51:46 83° WSW 18:55:59 10° NNW
Meteor 1-28 Rocket 3.6 18:50:22 10° N 18:54:08 68° WNW 18:57:51 10° SSW
Meteor 2-15 Rocket 4.4 18:49:52 10° N 18:55:59 78° E 19:02:05 10° S
Cosmos 1400 Rocket 3.3 18:52:52 10° N 18:56:38 37° ENE 19:00:20 10° SSE
MOS 1 4.4 18:52:41 10° SSE 18:58:13 59° ENE 19:03:47 10° N
Cosmos 2218 Rocket 4.0 18:52:16 10° S 18:58:25 85° E 19:04:35 10° N
SL-8 R/B 3.8 18:53:56 10° SW 18:58:45 83° NW 19:03:36 10° NE
Cosmos 1908 4.3 18:56:23 10° SE 18:59:35 24° E 19:02:48 10° NE
YAOGAN 1 2.6 18:57:45 10° SSE 19:02:04 87° ENE 19:06:25 10° NNW
Cosmos 1726 4.0 19:02:45 10° ESE 19:04:04 12° E 19:04:04 12° E
SL-16 R/B 2.3 19:00:39 10° NNW 19:06:21 85° WSW 19:12:00 10° SSE
BREEZE-M DEB (TANK) 2.0 19:04:39 10° NNW 19:06:32 28° NE 19:07:46 16° E
GENESIS II 4.3 19:03:52 10° SSW 19:07:45 56° ESE 19:11:39 10° NE
H-2A R/B 4.4 19:06:24 11° ESE 19:08:23 16° ENE 19:10:43 10° NNE
Tiangong 1 1.2 19:05:43 10° WNW 19:08:24 56° SSW 19:11:01 10° SE
Cosmos 1727 Rocket 4.0 19:06:36 10° N 19:12:55 65° E 19:19:11 10° SSE
Cosmos 1339 Rocket 4.5 19:07:36 10° N 19:13:56 68° E 19:20:07 10° SSE
ATLAS 3B CENTAUR R/B 4.3 19:11:27 10° SW 19:14:51 19° S 19:20:47 10° SE
GP-B 3.1 19:10:31 10° N 19:14:59 88° W 19:19:25 10° S
SPOT 3 Rocket 3.5 19:09:56 10° SSE 19:15:03 68° ENE 19:20:14 10° N
MONITOR-E 4.0 19:12:59 10° SSE 19:16:03 83° ENE 19:19:08 10° N
GRACE-2 3.9 19:14:36 10° SSE 19:17:04 45° E 19:19:33 10° NNE
GRACE-1 3.7 19:16:51 10° SSE 19:19:21 52° E 19:21:54 10° N
Cosmos 2056 Rocket 3.9 19:17:43 10° NNW 19:23:00 70° WSW 19:28:09 10° S
METEOR-M 4.2 19:18:27 10° SSE 19:23:48 85° WSW 19:29:10 10° NNW
DMSP B5D1-3 4.4 19:19:42 10° NNE 19:24:50 74° ESE 19:29:57 10° S
ALOS 2.3 19:20:23 10° SSE 19:24:57 57° ENE 19:29:32 10° N
Abrixas 4.5 19:26:48 10° SSE 19:26:51 10° SSE 19:26:51 10° SSE
CZ-4C R/B 2.7 19:23:30 10° S 19:27:59 33° ESE 19:31:34 16° ENE
SKYMED 2 4.4 19:24:30 10° N 19:28:45 54° WNW 19:32:58 10° SSW
Cosmos 2151 2.9 19:24:29 10° N 19:28:46 81° E 19:33:00 10° S
Cosmos 468 4.5 19:24:16 10° S 19:29:22 60° ESE 19:34:31 10° NNE
Cosmos 2098 Rocket 3.7 19:26:08 10° SSE 19:29:45 33° E 19:34:15 10° NNE
Cosmos 1743 Rocket 4.0 19:30:23 10° NNW 19:34:43 63° W 19:39:04 10° S
NOAA 12 4.0 19:30:58 10° SSE 19:36:15 82° ENE 19:41:35 10° N
Cosmos 1626 3.0 19:33:07 10° NNW 19:36:46 52° W 19:40:23 10° S
SAR-Lupe-3 4.4 19:33:38 10° NNE 19:37:13 77° ESE 19:40:47 10° S
Delta 2 Rocket 2.8 19:35:03 10° W 19:38:43 86° S 19:39:55 39° E
Cosmos 1315 Rocket 2.8 19:34:57 10° N 19:38:58 62° E 19:43:02 10° SSE
Cosmos 1452 Rocket 3.4 19:35:38 10° N 19:40:52 65° ENE 19:46:04 10° SSE
SL-24 R/B - RUBIN 2 3.8 19:38:07 10° NNW 19:42:48 51° ENE 19:44:46 29° ESE
FALCON 9 R/B 3.3 19:41:09 10° SW 19:42:57 16° SSW 19:45:36 10° SSE
Cosmos 2221 2.4 19:41:24 10° S 19:45:41 81° E 19:50:01 10° N
COSMOS 2428 3.3 19:40:42 10° N 19:45:51 34° ENE 19:47:22 29° E
USA 267 3.3 19:40:29 14° NE 19:46:06 63° SE 19:52:33 10° SSW
Resurs 01 Rocket 3.9 19:51:22 10° NNE 19:51:22 10° NNE 19:51:28 10° NNE
Cosmos 2333 Rocket 3.7 19:45:02 10° N 19:48:29 19° NE 19:48:29 19° NE
Cosmos 2360 Rocket 2.1 19:43:25 10° NNW 19:49:06 86° ENE 19:54:46 10° SSE
CZ-3 Stage 3 2.1 19:47:42 10° WSW 19:48:39 18° SSW 19:48:39 18° SSW
Cosmos 2219 3.2 19:47:18 10° S 19:52:54 57° ESE 19:58:31 10° NNE
Cosmos 2322 Rocket 4.1 19:50:52 10° NW 19:55:42 30° WSW 20:00:32 10° SSW
DELTA 2 R/B (1) 3.7 19:50:36 10° WNW 19:56:09 63° N 19:58:14 38° ENE
FengYun 1-2 T 4.1 19:50:45 10° SSE 19:56:11 64° ENE 20:01:36 10° N
RESURS DK-1 2.2 19:52:41 10° NNW 19:56:50 89° ESE 19:59:02 27° SSE
Cosmos 2058 4.1 19:53:08 10° NNW 19:57:06 43° W 20:01:02 10° SSW
Cosmos 921 Rocket 2.9 19:54:29 10° NNW 19:58:56 88° ENE 20:02:30 15° SSE
SJ-6B 3.6 20:01:41 34° NNE 20:01:41 34° NNE 20:04:05 10° N
Cosmos 44 2.9 19:57:50 10° SSW 20:02:14 88° ESE 20:03:58 36° NNE
FREGAT/IRIS 4.2 20:05:24 28° NNW 20:05:24 28° NNW 20:06:58 10° NNW
Cosmos 1535 Rocket 4.3 20:06:40 10° S 20:12:48 86° E 20:18:57 10° N
MOS 1-B Rocket 4.0 20:12:52 46° ENE 20:12:52 46° ENE 20:18:27 10° N
Iridium 4 Rocket 4.2 20:10:27 10° SSW 20:15:44 61° W 20:21:27 10° N
Cosmos 2322 3.9 20:11:36 10° NNW 20:17:18 69° WSW 20:22:17 14° S
Cosmos 44 Rocket 3.4 20:12:58 10° SW 20:17:39 68° WNW 20:19:34 35° NNE
Cosmos 1048 Rocket 4.3 20:12:48 10° SSW 20:17:53 64° WNW 20:22:59 10° N
ASTRO E2 3.8 20:21:01 10° WSW 20:24:01 39° SW 20:24:01 39° SW
Atlas Centaur 2 2.7 20:20:43 10° W 20:25:41 46° S 20:26:34 43° SSE
Cosmos 1420 Rocket 4.4 20:21:51 10° NNW 20:27:06 63° WSW 20:30:21 23° S
Cosmos 1805 Rocket 4.1 20:30:42 10° NNW 20:35:00 57° W 20:35:09 56° WSW
Cosmos 1726 3.9 20:35:41 10° SW 20:38:52 31° W 20:38:52 31° W
Cosmos 2219 Rocket 2.9 20:33:31 10° NNW 20:37:18 41° N 20:37:18 41° N
Cosmos 2333 4.4 20:47:12 10° NNW 20:52:45 67° W 20:52:45 67° W
Cosmos 2237 Rocket 4.1 21:03:22 10° NNW 21:05:07 20° N 21:05:07 20° N
CZ-4C R/B 3.7 21:11:49 10° WSW 21:16:24 30° NW 21:16:51 30° NW
USA 267 4.4 21:27:52 35° NNW 21:28:49 36° NW 21:34:38 10° W
COSMOS 2428 4.4 21:25:09 10° NW 21:29:26 28° W 21:29:26 28° W
Cosmos 2333 Rocket 4.1 21:28:07 10° NNW 21:30:31 25° NW 21:30:31 25° NW
